FLE299 CYWG-CYYC

Flight info

Callsign FLE299
Flight time 1h 34m
Altitude 38000
Route LIVBI DCT DUKPO DCT FAREN DCT GUDOG DCT PIKLA DCT BIRKO BIRKO6
Aircraft B38M/M-SDE1FGHILORVWXY/HB1

Departure

Time 2026-05-08 18:54
Airport Winnipeg / James Armstrong Richardson International Airport (CYWG)

Arrival

Time 2026-05-08 20:29
Airport Calgary International Airport (CYYC)
Time Latitude Longitude Altitude Speed Heading
2026-05-08 18:11 49.90680 -97.22552 785 ft 0 kts 165°
2026-05-08 18:29 49.90688 -97.22555 785 ft 2 kts 165°
2026-05-08 18:30 49.90708 -97.22564 784 ft 3 kts 181°
2026-05-08 18:30 49.90725 -97.22555 784 ft 3 kts 232°
2026-05-08 18:30 49.90729 -97.22549 784 ft 0 kts 244°
2026-05-08 18:30 49.90728 -97.22552 784 ft 1 kts 244°
2026-05-08 18:31 49.90724 -97.22564 784 ft 1 kts 244°
2026-05-08 18:31 49.90723 -97.22568 784 ft 0 kts 244°
2026-05-08 18:32 49.90724 -97.22573 784 ft 1 kts 269°
2026-05-08 18:32 49.90731 -97.22599 784 ft 6 kts 293°
2026-05-08 18:33 49.90741 -97.22696 785 ft 12 kts 262°
2026-05-08 18:33 49.90721 -97.22862 783 ft 19 kts 259°
2026-05-08 18:33 49.90690 -97.23087 784 ft 22 kts 257°
2026-05-08 18:33 49.90669 -97.23252 783 ft 14 kts 259°
2026-05-08 18:34 49.90584 -97.23340 784 ft 18 kts 198°
2026-05-08 18:34 49.90445 -97.23411 785 ft 24 kts 200°
2026-05-08 18:34 49.90297 -97.23448 788 ft 15 kts 137°
2026-05-08 18:34 49.90205 -97.23311 789 ft 21 kts 139°
2026-05-08 18:35 49.90073 -97.23130 787 ft 29 kts 138°
2026-05-08 18:35 49.89910 -97.22904 782 ft 31 kts 137°
2026-05-08 18:35 49.89765 -97.22642 783 ft 27 kts 129°
2026-05-08 18:35 49.89688 -97.22523 783 ft 6 kts 179°
2026-05-08 18:36 49.89654 -97.22572 782 ft 10 kts 230°
2026-05-08 18:36 49.89587 -97.22693 780 ft 19 kts 228°
2026-05-08 18:36 49.89486 -97.22879 776 ft 25 kts 238°
2026-05-08 18:36 49.89493 -97.23085 777 ft 20 kts 276°
2026-05-08 18:37 49.89515 -97.23336 778 ft 26 kts 279°
2026-05-08 18:37 49.89535 -97.23623 784 ft 28 kts 277°
2026-05-08 18:37 49.89558 -97.23916 790 ft 18 kts 277°
2026-05-08 18:37 49.89575 -97.24117 792 ft 15 kts 285°
2026-05-08 18:38 49.89644 -97.24160 792 ft 10 kts
2026-05-08 18:38 49.89651 -97.24158 792 ft 0 kts
2026-05-08 18:38 49.89840 -97.24113 789 ft 64 kts
2026-05-08 18:38 49.90409 -97.23979 784 ft 73 kts
2026-05-08 18:39 49.90758 -97.23901 787 ft 28 kts
2026-05-08 18:39 49.90813 -97.23889 788 ft 0 kts
2026-05-08 18:41 49.90680 -97.22552 788 ft 15 kts 165°
2026-05-08 18:48 49.90682 -97.22552 785 ft 1 kts 165°
2026-05-08 18:48 49.90698 -97.22559 785 ft 4 kts 165°
2026-05-08 18:48 49.90729 -97.22573 784 ft 4 kts 179°
2026-05-08 18:49 49.90754 -97.22556 784 ft 4 kts 235°
2026-05-08 18:49 49.90761 -97.22533 783 ft 1 kts 265°
2026-05-08 18:49 49.90760 -97.22552 783 ft 0 kts 264°
2026-05-08 18:49 49.90760 -97.22555 783 ft 1 kts 264°
2026-05-08 18:50 49.90757 -97.22580 783 ft 4 kts 259°
2026-05-08 18:50 49.90748 -97.22656 783 ft 10 kts 258°
2026-05-08 18:50 49.90729 -97.22800 783 ft 17 kts 258°
2026-05-08 18:50 49.90713 -97.22921 783 ft 19 kts 257°
2026-05-08 18:51 49.90674 -97.23220 783 ft 23 kts 257°
2026-05-08 18:51 49.90606 -97.23330 784 ft 23 kts 198°
2026-05-08 18:51 49.90378 -97.23446 787 ft 29 kts 198°
2026-05-08 18:51 49.90292 -97.23429 788 ft 14 kts 134°
2026-05-08 18:52 49.90174 -97.23266 788 ft 22 kts 137°
2026-05-08 18:52 49.90044 -97.23091 786 ft 28 kts 138°
2026-05-08 18:52 49.89883 -97.22862 782 ft 34 kts 131°
2026-05-08 18:52 49.89779 -97.22668 782 ft 29 kts 130°
2026-05-08 18:53 49.89702 -97.22535 783 ft 9 kts 149°
2026-05-08 18:53 49.89654 -97.22573 782 ft 11 kts 229°
2026-05-08 18:53 49.89585 -97.22694 780 ft 19 kts 228°
2026-05-08 18:53 49.89564 -97.22854 779 ft 16 kts 316°
2026-05-08 18:54 49.89726 -97.23070 778 ft 62 kts 319°
2026-05-08 18:54 49.90213 -97.23752 785 ft 111 kts 319°
2026-05-08 18:54 49.90859 -97.24666 991 ft 145 kts 321°
2026-05-08 18:54 49.91719 -97.25801 1480 ft 178 kts 321°
2026-05-08 18:55 49.93694 -97.28523 2966 ft 188 kts 317°
2026-05-08 18:55 49.94648 -97.29836 3531 ft 183 kts 318°
2026-05-08 18:55 49.95678 -97.31237 3701 ft 213 kts 319°
2026-05-08 18:56 49.96861 -97.32855 4023 ft 236 kts 318°
2026-05-08 18:56 49.98115 -97.34584 4660 ft 244 kts 318°
2026-05-08 18:56 49.99378 -97.36324 5418 ft 247 kts 318°
2026-05-08 18:56 50.00624 -97.38176 6220 ft 249 kts 308°
2026-05-08 18:57 50.01394 -97.40597 6991 ft 254 kts 287°
2026-05-08 18:57 50.01504 -97.43368 7764 ft 263 kts 265°
2026-05-08 18:57 50.00915 -97.46111 8603 ft 270 kts 251°
2026-05-08 18:57 50.00116 -97.48785 9422 ft 274 kts 251°
2026-05-08 18:58 49.99296 -97.51463 10152 ft 276 kts 251°
2026-05-08 18:58 49.98481 -97.54189 10868 ft 279 kts 252°
2026-05-08 18:58 49.97666 -97.56938 11573 ft 281 kts 252°
2026-05-08 18:58 49.96851 -97.59672 12278 ft 284 kts 252°
2026-05-08 18:59 49.96012 -97.62473 12992 ft 287 kts 252°
2026-05-08 18:59 49.95165 -97.65296 13689 ft 289 kts 252°
2026-05-08 18:59 49.94312 -97.68142 14306 ft 292 kts 252°
2026-05-08 18:59 49.93450 -97.71016 14928 ft 295 kts 252°
2026-05-08 19:00 49.92584 -97.73914 15552 ft 296 kts 254°
2026-05-08 19:00 49.92152 -97.76946 16135 ft 284 kts 275°
2026-05-08 19:00 49.92384 -97.79950 16748 ft 280 kts 285°
2026-05-08 19:00 49.92768 -97.82925 17354 ft 283 kts 286°
2026-05-08 19:01 49.93160 -97.85932 17977 ft 285 kts 286°
2026-05-08 19:01 49.93540 -97.88972 18506 ft 288 kts 285°
2026-05-08 19:01 49.93915 -97.92004 19016 ft 290 kts 285°
2026-05-08 19:01 49.94299 -97.95082 19523 ft 293 kts 285°
2026-05-08 19:02 49.94689 -97.98204 20029 ft 295 kts 285°
2026-05-08 19:02 49.95079 -98.01339 20532 ft 297 kts 285°
2026-05-08 19:02 49.95470 -98.04499 21028 ft 299 kts 285°
2026-05-08 19:02 49.95866 -98.07702 21526 ft 302 kts 285°
2026-05-08 19:03 49.96262 -98.10909 22007 ft 304 kts 285°
2026-05-08 19:03 49.96660 -98.14150 22484 ft 306 kts 285°
2026-05-08 19:03 49.97056 -98.17370 22948 ft 308 kts 285°
2026-05-08 19:03 49.97458 -98.20655 23402 ft 310 kts 285°
2026-05-08 19:04 49.97862 -98.23961 23762 ft 312 kts 285°
2026-05-08 19:04 49.98268 -98.27290 24154 ft 314 kts 285°
2026-05-08 19:04 49.98675 -98.30638 24541 ft 315 kts 285°
2026-05-08 19:04 49.99082 -98.33999 24914 ft 317 kts 285°
2026-05-08 19:05 49.99491 -98.37386 25277 ft 319 kts 285°
2026-05-08 19:05 49.99902 -98.40790 25648 ft 321 kts 285°
2026-05-08 19:05 50.00309 -98.44168 26006 ft 323 kts 285°
2026-05-08 19:05 50.00722 -98.47613 26355 ft 325 kts 285°
2026-05-08 19:06 50.01135 -98.51069 26705 ft 326 kts 285°
2026-05-08 19:06 50.01551 -98.54549 27050 ft 328 kts 285°
2026-05-08 19:06 50.01968 -98.58050 27397 ft 330 kts 285°
2026-05-08 19:06 50.02387 -98.61580 27722 ft 332 kts 285°
2026-05-08 19:07 50.02805 -98.65117 28065 ft 334 kts 285°
2026-05-08 19:07 50.03226 -98.68675 28385 ft 335 kts 285°
2026-05-08 19:07 50.03648 -98.72263 28709 ft 337 kts 285°
2026-05-08 19:07 50.04070 -98.75861 29026 ft 339 kts 285°
2026-05-08 19:08 50.04495 -98.79485 29334 ft 341 kts 285°
2026-05-08 19:08 50.04920 -98.83128 29644 ft 343 kts 285°
2026-05-08 19:08 50.05345 -98.86783 29931 ft 344 kts 285°
2026-05-08 19:08 50.05772 -98.90459 30177 ft 346 kts 285°
2026-05-08 19:09 50.06201 -98.94161 30423 ft 348 kts 285°
2026-05-08 19:09 50.06630 -98.97885 30673 ft 350 kts 285°
2026-05-08 19:09 50.07055 -99.01579 30933 ft 352 kts 285°
2026-05-08 19:09 50.07488 -99.05349 31192 ft 354 kts 285°
2026-05-08 19:10 50.07919 -99.09113 31445 ft 356 kts 285°
2026-05-08 19:10 50.08356 -99.12931 31673 ft 358 kts 285°
2026-05-08 19:10 50.08792 -99.16757 31902 ft 360 kts 285°
2026-05-08 19:10 50.09228 -99.20602 32167 ft 361 kts 285°
2026-05-08 19:11 50.09665 -99.24462 32444 ft 362 kts 285°
2026-05-08 19:11 50.10103 -99.28335 32716 ft 364 kts 285°
2026-05-08 19:11 50.10541 -99.32230 32990 ft 366 kts 285°
2026-05-08 19:11 50.10979 -99.36142 33272 ft 367 kts 285°
2026-05-08 19:12 50.11419 -99.40071 33526 ft 369 kts 285°
2026-05-08 19:12 50.11854 -99.43978 33781 ft 371 kts 285°
2026-05-08 19:12 50.12296 -99.47955 34006 ft 374 kts 285°
2026-05-08 19:12 50.12740 -99.51963 34229 ft 376 kts 285°
2026-05-08 19:13 50.13185 -99.55997 34441 ft 378 kts 285°
2026-05-08 19:13 50.13630 -99.60046 34657 ft 381 kts 285°
2026-05-08 19:13 50.14078 -99.64132 34876 ft 383 kts 285°
2026-05-08 19:13 50.14526 -99.68236 35067 ft 385 kts 285°
2026-05-08 19:14 50.14976 -99.72368 35313 ft 387 kts 285°
2026-05-08 19:14 50.15426 -99.76522 35543 ft 389 kts 285°
2026-05-08 19:14 50.15879 -99.80709 35769 ft 392 kts 285°
2026-05-08 19:14 50.16326 -99.84855 35987 ft 394 kts 284°
2026-05-08 19:15 50.16875 -99.89048 36206 ft 392 kts 290°
2026-05-08 19:15 50.17638 -99.93150 36417 ft 395 kts 290°
2026-05-08 19:15 50.18390 -99.97291 36631 ft 398 kts 290°
2026-05-08 19:15 50.19132 -100.01464 36839 ft 401 kts 290°
2026-05-08 19:16 50.19885 -100.05663 37043 ft 403 kts 290°
2026-05-08 19:16 50.20648 -100.09891 37238 ft 406 kts 290°
2026-05-08 19:16 50.21414 -100.14150 37516 ft 408 kts 289°
2026-05-08 19:16 50.22174 -100.18421 37759 ft 408 kts 289°
2026-05-08 19:17 50.22931 -100.22677 37776 ft 405 kts 289°
2026-05-08 19:17 50.24445 -100.31179 37779 ft 410 kts 289°
2026-05-08 19:18 50.25968 -100.39809 37791 ft 412 kts 289°
2026-05-08 19:18 50.27481 -100.48404 37790 ft 413 kts 289°
2026-05-08 19:19 50.28996 -100.57057 37800 ft 413 kts 289°
2026-05-08 19:19 50.30505 -100.65719 37773 ft 412 kts 289°
2026-05-08 19:20 50.32001 -100.74346 37797 ft 410 kts 289°
2026-05-08 19:20 50.33491 -100.82980 37806 ft 410 kts 289°
2026-05-08 19:21 50.34971 -100.91600 37803 ft 410 kts 289°
2026-05-08 19:21 50.36446 -101.00232 37816 ft 411 kts 289°
2026-05-08 19:22 50.37916 -101.08878 37815 ft 411 kts 289°
2026-05-08 19:22 50.39381 -101.17547 37826 ft 409 kts 289°
2026-05-08 19:23 50.40829 -101.26148 37822 ft 408 kts 289°
2026-05-08 19:23 50.42259 -101.34684 37818 ft 407 kts 289°
2026-05-08 19:24 50.43694 -101.43299 37823 ft 408 kts 289°
2026-05-08 19:24 50.45124 -101.51918 37823 ft 408 kts 289°
2026-05-08 19:25 50.46545 -101.60533 37826 ft 408 kts 289°
2026-05-08 19:25 50.47960 -101.69161 37823 ft 406 kts 289°
2026-05-08 19:26 50.49358 -101.77717 37823 ft 404 kts 289°
2026-05-08 19:26 50.50740 -101.86226 37825 ft 404 kts 289°
2026-05-08 19:27 50.52124 -101.94787 37822 ft 404 kts 289°
2026-05-08 19:27 50.53501 -102.03348 37828 ft 404 kts 289°
2026-05-08 19:28 50.54874 -102.11931 37828 ft 404 kts 289°
2026-05-08 19:28 50.56234 -102.20480 37830 ft 402 kts 289°
2026-05-08 19:29 50.57585 -102.29014 37827 ft 401 kts 289°
2026-05-08 19:29 50.58919 -102.37478 37826 ft 401 kts 289°
2026-05-08 19:30 50.60255 -102.46004 37827 ft 401 kts 289°
2026-05-08 19:30 50.61584 -102.54531 37827 ft 401 kts 289°
2026-05-08 19:31 50.62899 -102.63012 37822 ft 401 kts 289°
2026-05-08 19:31 50.64215 -102.71552 37835 ft 399 kts 289°
2026-05-08 19:32 50.65518 -102.80035 37823 ft 398 kts 289°
2026-05-08 19:32 50.66813 -102.88522 37825 ft 398 kts 289°
2026-05-08 19:33 50.68103 -102.97020 37829 ft 398 kts 289°
2026-05-08 19:33 50.69385 -103.05505 37824 ft 398 kts 289°
2026-05-08 19:34 50.70651 -103.13935 37829 ft 398 kts 289°
2026-05-08 19:34 50.71920 -103.22437 37819 ft 397 kts 289°
2026-05-08 19:35 50.73177 -103.30893 37814 ft 395 kts 289°
2026-05-08 19:35 50.74426 -103.39344 37813 ft 395 kts 289°
2026-05-08 19:36 50.75667 -103.47782 37810 ft 395 kts 289°
2026-05-08 19:36 50.76904 -103.56249 37811 ft 395 kts 289°
2026-05-08 19:37 50.78136 -103.64717 37801 ft 396 kts 289°
2026-05-08 19:37 50.79364 -103.73215 37810 ft 396 kts 288°
2026-05-08 19:38 50.80382 -103.80292 37811 ft 396 kts 288°
2026-05-08 19:38 50.81795 -103.90167 37809 ft 397 kts 288°
2026-05-08 19:39 50.82804 -103.97260 37812 ft 397 kts 288°
2026-05-08 19:39 50.84009 -104.05779 37812 ft 397 kts 288°
2026-05-08 19:40 50.85208 -104.14301 37813 ft 397 kts 288°
2026-05-08 19:40 50.86402 -104.22832 37768 ft 396 kts 288°
2026-05-08 19:41 50.87582 -104.31321 37801 ft 393 kts 288°
2026-05-08 19:41 50.88752 -104.39773 37800 ft 393 kts 288°
2026-05-08 19:42 50.89907 -104.48171 37798 ft 393 kts 288°
2026-05-08 19:42 50.91067 -104.56646 37817 ft 396 kts 288°
2026-05-08 19:43 50.92225 -104.65171 37817 ft 395 kts 288°
2026-05-08 19:43 50.93377 -104.73691 37818 ft 396 kts 288°
2026-05-08 19:44 50.94520 -104.82209 37808 ft 394 kts 288°
2026-05-08 19:44 50.95655 -104.90697 37812 ft 394 kts 288°
2026-05-08 19:45 50.96784 -104.99203 37810 ft 393 kts 288°
2026-05-08 19:45 50.98641 -105.13303 37807 ft 394 kts 288°
2026-05-08 19:46 51.00860 -105.30339 37822 ft 391 kts 288°
2026-05-08 19:46 51.04116 -105.55708 37810 ft 391 kts 288°
2026-05-08 19:47 51.06259 -105.72664 37827 ft 391 kts 288°
2026-05-08 19:47 51.08368 -105.89568 37821 ft 386 kts 288°
2026-05-08 19:48 51.10421 -106.06222 37822 ft 386 kts 287°
2026-05-08 19:48 51.12467 -106.23023 37832 ft 386 kts 287°
2026-05-08 19:49 51.14488 -106.39843 37834 ft 385 kts 287°
2026-05-08 19:49 51.16465 -106.56504 37832 ft 384 kts 287°
2026-05-08 19:50 51.18428 -106.73255 37843 ft 385 kts 287°
2026-05-08 19:50 51.20039 -106.87180 37773 ft 385 kts 287°
2026-05-08 19:51 51.20998 -106.95543 37846 ft 382 kts 287°
2026-05-08 19:51 51.21948 -107.03873 37845 ft 381 kts 286°
2026-05-08 19:52 51.22891 -107.12203 37849 ft 381 kts 286°
2026-05-08 19:52 51.23832 -107.20567 37847 ft 382 kts 286°
2026-05-08 19:53 51.24759 -107.28874 37845 ft 383 kts 286°
2026-05-08 19:53 51.25689 -107.37251 37845 ft 383 kts 286°
2026-05-08 19:54 51.26610 -107.45615 37843 ft 381 kts 286°
2026-05-08 19:54 51.27659 -107.55203 37844 ft 381 kts 286°
2026-05-08 19:55 51.29462 -107.71871 37828 ft 381 kts 285°
2026-05-08 19:55 51.31244 -107.88578 37823 ft 381 kts 285°
2026-05-08 19:56 51.32998 -108.05257 37831 ft 378 kts 285°
2026-05-08 19:56 51.34385 -108.18617 37866 ft 378 kts 285°
2026-05-08 19:57 51.35240 -108.26930 37852 ft 378 kts 285°
2026-05-08 19:57 51.36082 -108.35175 37853 ft 378 kts 285°
2026-05-08 19:58 51.36927 -108.43503 37853 ft 378 kts 285°
2026-05-08 19:58 51.37763 -108.51818 37851 ft 378 kts 285°
2026-05-08 19:59 51.38595 -108.60147 37856 ft 378 kts 285°
2026-05-08 19:59 51.39420 -108.68465 37857 ft 378 kts 285°
2026-05-08 20:00 51.40432 -108.78760 37853 ft 378 kts 285°
2026-05-08 20:00 51.42049 -108.95416 37848 ft 378 kts 285°
2026-05-08 20:01 51.43646 -109.12120 37860 ft 379 kts 284°
2026-05-08 20:01 51.45224 -109.28884 37847 ft 380 kts 284°
2026-05-08 20:02 51.46766 -109.45535 37857 ft 380 kts 284°
2026-05-08 20:02 51.48296 -109.62321 37865 ft 378 kts 284°
2026-05-08 20:03 51.49794 -109.79028 37863 ft 378 kts 284°
2026-05-08 20:03 51.51271 -109.95771 37863 ft 379 kts 284°
2026-05-08 20:04 51.52465 -110.12590 37818 ft 380 kts 282°
2026-05-08 20:04 51.53544 -110.29326 37853 ft 376 kts 282°
2026-05-08 20:05 51.54591 -110.45959 37846 ft 376 kts 282°
2026-05-08 20:05 51.55622 -110.62720 37853 ft 376 kts 282°
2026-05-08 20:06 51.57193 -110.79009 37894 ft 365 kts 305°
2026-05-08 20:06 51.63114 -110.91395 37943 ft 380 kts 274°
2026-05-08 20:07 51.61297 -111.08375 37883 ft 385 kts 271°
2026-05-08 20:07 51.61251 -111.16863 37856 ft 376 kts 282°
2026-05-08 20:07 51.61763 -111.25232 37869 ft 378 kts 278°
2026-05-08 20:08 51.62289 -111.42157 37881 ft 378 kts 279°
2026-05-08 20:08 51.62834 -111.59058 37879 ft 378 kts 279°
2026-05-08 20:09 51.63361 -111.75861 37822 ft 378 kts 278°
2026-05-08 20:09 51.63620 -111.84352 37442 ft 380 kts 278°
2026-05-08 20:09 51.63873 -111.92906 35892 ft 384 kts 277°
2026-05-08 20:10 51.64125 -112.01595 34136 ft 392 kts 277°
2026-05-08 20:10 51.64372 -112.10431 32358 ft 396 kts 277°
2026-05-08 20:10 51.64612 -112.19243 31019 ft 389 kts 277°
2026-05-08 20:10 51.64843 -112.27867 29722 ft 382 kts 277°
2026-05-08 20:11 51.65063 -112.36371 28232 ft 377 kts 276°
2026-05-08 20:11 51.65242 -112.44650 26881 ft 373 kts 271°
2026-05-08 20:11 51.63844 -112.52779 25599 ft 379 kts 256°
2026-05-08 20:11 51.62046 -112.60693 24381 ft 374 kts 257°
2026-05-08 20:12 51.60376 -112.68555 23169 ft 370 kts 256°
2026-05-08 20:12 51.58664 -112.76310 21825 ft 365 kts 256°
2026-05-08 20:12 51.56992 -112.83971 20873 ft 367 kts 255°
2026-05-08 20:12 51.55188 -112.92206 20870 ft 411 kts 255°
2026-05-08 20:13 51.53212 -113.01093 20878 ft 424 kts 255°
2026-05-08 20:13 51.51237 -113.10008 20874 ft 425 kts 255°
2026-05-08 20:13 51.49243 -113.18947 20886 ft 425 kts 255°
2026-05-08 20:13 51.47482 -113.26238 20870 ft 430 kts 245°
2026-05-08 20:14 51.45699 -113.30141 20807 ft 434 kts 235°
2026-05-08 20:14 51.43760 -113.33805 20441 ft 425 kts 233°
2026-05-08 20:14 51.41868 -113.37335 20061 ft 410 kts 234°
2026-05-08 20:14 51.40078 -113.40799 19522 ft 399 kts 235°
2026-05-08 20:15 51.38332 -113.44226 18907 ft 393 kts 235°
2026-05-08 20:15 51.36598 -113.47565 18278 ft 388 kts 234°
2026-05-08 20:15 51.34865 -113.50859 17550 ft 384 kts 234°
2026-05-08 20:15 51.33162 -113.54113 16816 ft 380 kts 234°
2026-05-08 20:16 51.31485 -113.57335 16112 ft 376 kts 234°
2026-05-08 20:16 51.29818 -113.60526 15446 ft 371 kts 233°
2026-05-08 20:16 51.28166 -113.63676 14797 ft 367 kts 233°
2026-05-08 20:16 51.26533 -113.66786 14151 ft 360 kts 233°
2026-05-08 20:17 51.24948 -113.69808 13188 ft 349 kts 233°
2026-05-08 20:17 51.23429 -113.72701 12497 ft 331 kts 232°
2026-05-08 20:17 51.21992 -113.75433 11868 ft 311 kts 233°
2026-05-08 20:17 51.20628 -113.78025 10821 ft 301 kts 233°
2026-05-08 20:18 51.19311 -113.80533 9705 ft 298 kts 232°
2026-05-08 20:18 51.17954 -113.83010 8562 ft 297 kts 223°
2026-05-08 20:18 51.16126 -113.84564 8070 ft 298 kts 195°
2026-05-08 20:18 51.14139 -113.84883 8036 ft 278 kts 182°
2026-05-08 20:19 51.12262 -113.84888 8016 ft 260 kts 181°
2026-05-08 20:19 51.10493 -113.84846 8053 ft 249 kts 180°
2026-05-08 20:19 51.08712 -113.84840 8053 ft 255 kts 182°
2026-05-08 20:19 51.06981 -113.84847 8044 ft 242 kts 181°
2026-05-08 20:20 51.05323 -113.84852 8043 ft 242 kts 181°
2026-05-08 20:20 51.03648 -113.84859 7911 ft 240 kts 181°
2026-05-08 20:20 51.01987 -113.84868 7839 ft 235 kts 181°
2026-05-08 20:20 51.00338 -113.84875 7557 ft 237 kts 181°
2026-05-08 20:21 50.98721 -113.84882 7193 ft 227 kts 182°
2026-05-08 20:21 50.97181 -113.84889 6927 ft 215 kts 182°
2026-05-08 20:21 50.95736 -113.84897 6764 ft 201 kts 182°
2026-05-08 20:21 50.94376 -113.85004 6538 ft 190 kts 198°
2026-05-08 20:22 50.93338 -113.86072 6528 ft 176 kts 231°
2026-05-08 20:22 50.92824 -113.87729 6529 ft 161 kts 263°
2026-05-08 20:22 50.92792 -113.89401 6531 ft 147 kts 274°
2026-05-08 20:22 50.92792 -113.90465 6543 ft 144 kts 274°
2026-05-08 20:23 50.92793 -113.92591 6520 ft 143 kts 274°
2026-05-08 20:23 50.92794 -113.94151 6552 ft 141 kts 274°
2026-05-08 20:23 50.92789 -113.95707 6530 ft 141 kts 275°
2026-05-08 20:23 50.92883 -113.97207 6512 ft 134 kts 294°
2026-05-08 20:24 50.93397 -113.98388 6524 ft 130 kts 321°
2026-05-08 20:24 50.94221 -113.99027 6548 ft 138 kts 348°
2026-05-08 20:24 50.95198 -113.99065 6524 ft 142 kts
2026-05-08 20:24 50.96178 -113.99044 6491 ft 146 kts 358°
2026-05-08 20:25 50.97177 -113.99045 6325 ft 140 kts 358°
2026-05-08 20:25 50.98150 -113.99046 6136 ft 140 kts 359°
2026-05-08 20:25 50.98798 -113.99046 6006 ft 141 kts 359°
2026-05-08 20:25 50.99791 -113.99045 5822 ft 142 kts 359°
2026-05-08 20:26 51.00765 -113.99044 5641 ft 139 kts 358°
2026-05-08 20:26 51.01741 -113.99042 5446 ft 139 kts 359°
2026-05-08 20:26 51.02704 -113.99041 5277 ft 138 kts 359°
2026-05-08 20:26 51.03666 -113.99038 5092 ft 138 kts 358°
2026-05-08 20:27 51.04631 -113.99039 4909 ft 138 kts 359°
2026-05-08 20:27 51.05609 -113.99040 4734 ft 139 kts 358°
2026-05-08 20:27 51.06577 -113.99040 4542 ft 138 kts 359°
2026-05-08 20:27 51.07530 -113.99035 4352 ft 142 kts 360°
2026-05-08 20:28 51.08516 -113.99032 4127 ft 141 kts
2026-05-08 20:28 51.09452 -113.99046 3933 ft 129 kts
2026-05-08 20:28 51.10394 -113.99047 3748 ft 138 kts
2026-05-08 20:28 51.11328 -113.99036 3580 ft 130 kts
2026-05-08 20:29 51.11894 -113.99039 3562 ft 29 kts 356°
2026-05-08 20:29 51.11923 -113.99041 3564 ft 0 kts 356°